[[{"header":{"parameterUnit":"m.s-1","parameterCategory":1,"la1":30.2991,"la2":30.254,"lo1":-89.0895,"lo2":-89.0444,"dy":0.0017,"dx":0.0017,"nx":28,"ny":28,"refTime":"2023-03-19T21:00:00:Z","depth":0,"parameterNumber":2,"parameterNumberName":"U-component_of_WINDS"},"data":[0,0,0,0,0,0,0,0,0,0,0,0,0,0,0,0,0,0,0,0,0,0,0,0,0,0,0,0,0,0,0,0,0,0,0,0,0,0,0,0,0,0,0,0,0,0,0,0,0,0,0,0,0,0,0,0,0,0,-3.4133,-3.4133,0,-3.4208,-3.4209,-3.4209,-3.4082,-3.4077,-3.4073,-3.4069,-3.4146,-3.4152,-3.4158,0,0,0,0,0,0,0,0,0,0,0,0,0,-3.3876,-3.3881,-3.4132,-3.4133,-3.4134,-3.4208,-3.4209,-3.421,-3.4083,-3.4077,-3.4072,-3.4067,-3.4144,-3.4152,-3.4159,0,0,0,0,0,0,0,0,0,0,0,0,0,-3.3973,-3.3883,-3.4132,-3.408,-3.4076,-3.4207,-3.4209,-3.421,-3.4084,-3.4077,-3.4071,-3.4065,-3.4142,-3.4151,-3.416,-3.4347,0,0,-3.4188,-3.4192,0,0,0,0,0,0,0,0,-3.3968,-3.3982,-3.4086,-3.4084,-3.4079,-3.4129,-3.4146,-3.4256,-3.4085,-3.4081,-3.4069,-3.4061,-3.4146,-3.4154,-3.4183,-3.435,-3.4354,-3.4189,-3.4194,-3.4198,-3.4201,0,0,0,0,0,0,0,-3.3961,-3.3978,-3.4162,-3.4088,-3.4084,-3.4051,-3.4058,-3.4167,-3.4149,-3.4081,-3.4072,-3.4082,-3.4143,-3.4174,-3.4184,-3.4355,-3.4189,-3.4197,-3.4202,-3.4206,-3.4675,-3.4681,0,0,0,0,0,0,-3.3961,-3.3974,-3.416,-3.4164,-3.4006,-3.4061,-3.4069,-3.4119,-3.4147,-3.4145,-3.4088,-3.4076,-3.4162,-3.4173,-3.4186,-3.4403,-3.4198,-3.4207,-3.4212,-3.4668,-3.4676,-3.4684,0,0,0,0,0,0,-3.3956,-3.3979,-3.4157,-3.4067,-3.4087,-3.4073,-3.4131,-3.4124,-3.4156,-3.4153,-3.4149,-3.4123,-3.4157,-3.4173,-3.4307,-3.4404,-3.4211,-3.4219,-3.466,-3.467,-3.468,-3.4842,0,0,0,0,0,0,-3.3949,-3.3978,-3.405,-3.4069,-3.4092,-3.4278,-3.4137,-3.4131,-3.4172,-3.4157,-3.4185,-3.4183,-3.4153,-3.4294,-3.4316,-3.4414,-3.4226,-3.4651,-3.4664,-3.4677,-3.4828,-3.4857,-3.4882,0,0,0,0,0,-3.394,-3.4093,-3.4054,-3.4077,-3.4182,-3.4284,-3.4297,-3.4259,-3.418,-3.4251,-3.4249,-3.4183,-3.439,-3.4308,-3.4332,-3.4434,-3.4644,-3.4661,-3.4676,-3.4816,-3.4851,-3.4881,0,0,0,0,0,0,-3.4086,-3.4095,-3.4051,-3.4215,-3.425,-3.4262,-3.4351,-3.4298,-3.4356,-3.434,-3.429,-3.4297,-3.444,-3.4451,-3.4359,-3.4614,-3.4504,-3.4525,-3.4603,-3.4636,-3.4662,-3.4657,-3.4234,0,0,0,0,0,-3.4137,-3.422,-3.4223,-3.4367,-3.4386,-3.4366,-3.4409,-3.4377,-3.441,-3.4424,-3.4431,-3.4466,-3.4539,-3.4588,-3.4655,-3.4829,-3.4831,-3.491,-3.4937,-3.4959,-3.4978,-3.5067,-3.5102,-3.4735,-3.4735,-3.4735,0,0,-3.4244,-3.4259,-3.4315,-3.4397,-3.4419,-3.4505,-3.4379,-3.4476,-3.4538,-3.4439,-3.4565,-3.4571,-3.4607,-3.4761,-3.4829,-3.4773,-3.5079,-3.4979,-3.4997,-3.5004,-3.5087,-3.5122,-3.5153,-3.4746,-3.4744,-3.4742,0,0,-3.4482,-3.4503,-3.4623,-3.4648,-3.4683,-3.4668,-3.4697,-3.4717,-3.4717,-3.4843,-3.4769,-3.4842,-3.4969,-3.4996,-3.5027,-3.5271,-3.5211,-3.5294,-3.5434,-3.5522,-3.5551,-3.5576,-3.5661,-3.5693,-3.5313,-3.5314,-3.5314,0,-3.461,-3.4737,-3.4692,-3.4793,-3.483,-3.4743,-3.4863,-3.489,-3.4946,-3.4973,-3.491,-3.5065,-3.5083,-3.524,-3.53,-3.5328,-3.5358,-3.5291,-3.5551,-3.5575,-3.5598,-3.5679,-3.5711,-3.5323,-3.5322,-3.5321,-3.532,0,-3.4891,-3.498,-3.5073,-3.5128,-3.5175,-3.5286,-3.5257,-3.531,-3.5273,-3.5264,-3.5391,-3.5409,-3.5476,-3.5511,-3.5476,-3.5663,-3.5627,-3.5559,-3.5447,-3.5644,-3.5718,-3.5749,-3.5337,-3.5334,-3.5331,-3.5328,0,0,-3.5225,-3.5251,-3.5286,-3.5309,-3.534,-3.5407,-3.5512,-3.5577,-3.5623,-3.5664,-3.5749,-3.5857,-3.5793,-3.5827,-3.5794,-3.5872,-3.6061,-3.5793,-3.5792,-3.584,-3.6264,-3.6315,-3.6352,-3.6021,-3.6027,-3.6031,-3.6261,0,-3.546,-3.5642,-3.5603,-3.5781,-3.586,-3.5777,-3.5868,-3.5896,-3.589,-3.5956,-3.5948,-3.6024,-3.5935,-3.5954,-3.6027,-3.6023,-3.6145,-3.6005,-3.6099,-3.6103,-3.6092,-3.6391,-3.6446,-3.6661,-3.629,-3.6295,-3.6298,0,-3.5759,-3.5809,-3.5995,-3.601,-3.6042,-3.6125,-3.6179,-3.6244,-3.6273,-3.6263,-3.63,-3.6251,-3.6353,-3.624,-3.6379,-3.6285,-3.6321,-3.6324,-3.6331,-3.6338,-3.6212,-3.6404,-3.6729,-3.6761,-3.6344,-3.6341,-3.6337,0,-3.5981,-3.6096,-3.622,-3.6242,-3.6264,-3.6323,-3.6335,-3.6358,-3.6398,-3.6446,-3.6471,-3.6531,-3.6563,-3.6609,-3.6577,-3.6498,-3.6721,-3.6605,-3.6713,-3.6714,-3.6764,-3.6761,-3.7098,-3.679,-3.6789,-3.6788,-3.6788,0,-3.6247,-3.6364,-3.632,-3.6397,-3.6524,-3.6477,-3.6604,-3.6605,-3.6626,-3.67,-3.6632,-3.6703,-3.6656,-3.6723,-3.6698,-3.6815,-3.6831,-3.6824,-3.6816,-3.683,-3.6831,-3.6852,-3.6836,-3.6797,-3.6795,-3.6793,-3.6792,0,-3.6518,-3.6493,-3.6623,-3.6632,-3.6636,-3.6729,-3.6736,-3.6806,-3.6794,-3.6888,-3.6908,-3.6888,-3.6963,-3.6935,-3.7015,-3.6998,-3.7147,-3.7121,-3.7138,-3.713,-3.7239,-3.7229,-3.7601,-3.7646,-3.731,-3.7313,-3.7316,0,-3.6688,-3.6775,-3.6792,-3.6837,-3.6853,-3.6926,-3.6966,-3.6923,-3.6968,-3.7005,-3.7071,-3.7139,-3.7192,-3.7315,-3.7307,-3.7367,-3.734,-3.7466,-3.7348,-3.7358,-3.7339,-3.7334,-3.7341,-3.7489,-3.7493,-3.7496,-3.7499,0,-3.6993,-3.6976,-3.7037,-3.7093,-3.7142,-3.7185,-3.7221,-3.7261,-3.7219,-3.7272,-3.7347,-3.7388,-3.7468,-3.7536,-3.7589,-3.7599,-3.7542,-3.7536,-3.7564,-3.7578,-3.7584,-3.758,-3.72,-3.7528,-3.7525,-3.7523,-3.7521,-3.752,-3.7217,-3.729,-3.7312,-3.7381,-3.7403,-3.7437,-3.7503,-3.7497,-3.7559,-3.7621,-3.7591,-3.7677,-3.7701,-3.7766,-3.7784,-3.785,-3.78,-3.7841,-3.7851,-3.7862,-3.7875,-3.7574,-3.7859,-3.7858,-3.7858,-3.7857,-3.7856,0,-3.7517,-3.7526,-3.759,-3.7641,-3.7695,-3.7636,-3.7672,-3.772,-3.7797,-3.7824,-3.7876,-3.796,-3.8025,-3.8022,-3.8081,-3.8134,-3.8109,-3.8151,-3.8146,-3.8149,-3.7917,-3.7886,-3.817,-3.817,-3.817,-3.817,-3.817,-3.817,-3.7679,-3.7797,-3.7782,-3.7909,-3.7917,-3.8001,-3.8026,-3.8056,-3.8077,-3.8174,-3.8227,-3.8224,-3.8238,-3.8297,-3.8353,-3.835,-3.8374,-3.8426,-3.8413,-3.8197,-3.8165,-3.8136,-3.8106,-3.8432,-3.8433,-3.8639,-3.8641,-3.8643]},{"header":{"parameterUnit":"m.s-1","parameterCategory":1,"la1":30.2991,"la2":30.254,"lo1":-89.0895,"lo2":-89.0444,"dy":0.0017,"dx":0.0017,"nx":28,"ny":28,"refTime":"2023-03-19T21:00:00:Z","depth":0,"parameterNumber":3,"parameterNumberName":"V-component_of_WINDS"},"data":[0,0,0,0,0,0,0,0,0,0,0,0,0,0,0,0,0,0,0,0,0,0,0,0,0,0,0,0,0,0,0,0,0,0,0,0,0,0,0,0,0,0,0,0,0,0,0,0,0,0,0,0,0,0,0,0,0,0,-5.1806,-5.1807,0,-5.1908,-5.1909,-5.191,-5.1829,-5.1825,-5.1822,-5.1819,-5.1919,-5.1925,-5.193,0,0,0,0,0,0,0,0,0,0,0,0,0,-5.1534,-5.154,-5.1806,-5.1807,-5.1808,-5.1908,-5.1909,-5.191,-5.1829,-5.1825,-5.1821,-5.1817,-5.1917,-5.1924,-5.1931,0,0,0,0,0,0,0,0,0,0,0,0,0,-5.1646,-5.1542,-5.1806,-5.178,-5.1779,-5.1907,-5.1909,-5.1911,-5.183,-5.1825,-5.182,-5.1815,-5.1915,-5.1923,-5.1932,-5.209,0,0,-5.1959,-5.1963,0,0,0,0,0,0,0,0,-5.164,-5.1656,-5.1782,-5.1782,-5.1781,-5.185,-5.185,-5.1971,-5.1831,-5.1811,-5.1818,-5.1812,-5.19,-5.191,-5.194,-5.2095,-5.2099,-5.196,-5.1965,-5.1969,-5.1971,0,0,0,0,0,0,0,-5.1632,-5.1651,-5.1846,-5.1784,-5.1783,-5.1761,-5.1771,-5.1872,-5.1883,-5.1812,-5.1806,-5.182,-5.1898,-5.1932,-5.1942,-5.2101,-5.1959,-5.1967,-5.1973,-5.1976,-5.2385,-5.2391,0,0,0,0,0,0,-5.1628,-5.1645,-5.1843,-5.1849,-5.1696,-5.177,-5.1782,-5.1833,-5.1882,-5.1884,-5.1824,-5.1815,-5.1919,-5.1932,-5.1945,-5.2131,-5.1969,-5.1977,-5.1982,-5.238,-5.2387,-5.2393,0,0,0,0,0,0,-5.1622,-5.1646,-5.1839,-5.1746,-5.1768,-5.1781,-5.1839,-5.1838,-5.1871,-5.1891,-5.1892,-5.1857,-5.1916,-5.1933,-5.2054,-5.2133,-5.1981,-5.1989,-5.2373,-5.2382,-5.239,-5.2505,0,0,0,0,0,0,-5.1615,-5.1645,-5.1707,-5.1748,-5.1774,-5.1948,-5.1844,-5.1844,-5.1887,-5.1877,-5.1922,-5.1924,-5.1913,-5.2041,-5.2063,-5.2142,-5.1996,-5.2366,-5.2377,-5.2387,-5.2494,-5.2516,-5.2535,0,0,0,0,0,-5.1605,-5.1735,-5.171,-5.1734,-5.1852,-5.1953,-5.1968,-5.1954,-5.1894,-5.1955,-5.1967,-5.1922,-5.2121,-5.2054,-5.2078,-5.2161,-5.2361,-5.2374,-5.2386,-5.2485,-5.2512,-5.2534,0,0,0,0,0,0,-5.1702,-5.174,-5.1713,-5.186,-5.1904,-5.1939,-5.2016,-5.1983,-5.2044,-5.2032,-5.201,-5.2021,-5.2148,-5.2167,-5.2092,-5.2315,-5.2231,-5.2249,-5.2298,-5.2324,-5.2344,-5.2336,-5.2003,0,0,0,0,0,-5.1741,-5.1822,-5.185,-5.1977,-5.2,-5.2004,-5.2048,-5.2033,-5.2077,-5.2095,-5.2116,-5.2159,-5.223,-5.2278,-5.2346,-5.2496,-5.2503,-5.2565,-5.2585,-5.2602,-5.2617,-5.2695,-5.2722,-5.2434,-5.2434,-5.2433,0,0,-5.1821,-5.1852,-5.1904,-5.1997,-5.2029,-5.2111,-5.2021,-5.2112,-5.2171,-5.2108,-5.2224,-5.2241,-5.2287,-5.2423,-5.2484,-5.2442,-5.2698,-5.2618,-5.2631,-5.2637,-5.2711,-5.2738,-5.2762,-5.2442,-5.2441,-5.2439,0,0,-5.2009,-5.2042,-5.215,-5.2184,-5.2233,-5.2235,-5.2261,-5.2301,-5.2309,-5.2425,-5.2379,-5.2448,-5.2573,-5.2607,-5.264,-5.2838,-5.2798,-5.286,-5.2967,-5.3043,-5.3065,-5.3085,-5.3153,-5.3178,-5.2875,-5.2876,-5.2876,0,-5.2103,-5.2226,-5.2209,-5.2303,-5.2343,-5.2291,-5.2398,-5.2431,-5.25,-5.2528,-5.2481,-5.2634,-5.2662,-5.2803,-5.2851,-5.2881,-5.2908,-5.2855,-5.3064,-5.3084,-5.3102,-5.3166,-5.3192,-5.2883,-5.2882,-5.2881,-5.2881,0,-5.2336,-5.2422,-5.2503,-5.2571,-5.2621,-5.2721,-5.2717,-5.2769,-5.2749,-5.2754,-5.2871,-5.2902,-5.2973,-5.3005,-5.2987,-5.3143,-5.3116,-5.3067,-5.2982,-5.3137,-5.3197,-5.3221,-5.2893,-5.289,-5.2888,-5.2887,0,0,-5.259,-5.2645,-5.2675,-5.2704,-5.2754,-5.2819,-5.2915,-5.2985,-5.3028,-5.3077,-5.3155,-5.3261,-5.3215,-5.3253,-5.3237,-5.3304,-5.3455,-5.3246,-5.3247,-5.3282,-5.3626,-5.3661,-5.369,-5.3429,-5.3434,-5.3438,-5.3621,0,-5.2778,-5.2947,-5.2933,-5.3092,-5.3168,-5.3118,-5.3201,-5.3239,-5.3246,-5.3311,-5.3318,-5.3392,-5.3327,-5.3349,-5.3414,-5.3423,-5.3523,-5.341,-5.3499,-5.3503,-5.3488,-5.3722,-5.376,-5.3932,-5.3645,-5.3649,-5.3651,0,-5.3021,-5.3078,-5.3244,-5.3279,-5.3311,-5.3386,-5.3448,-5.3511,-5.3552,-5.3552,-5.3594,-5.3566,-5.3659,-5.3573,-5.3701,-5.3624,-5.3659,-5.3669,-5.3675,-5.3682,-5.3586,-5.3733,-5.3987,-5.4012,-5.3689,-5.3686,-5.3683,0,-5.3185,-5.3304,-5.3418,-5.3444,-5.3489,-5.3542,-5.3563,-5.3599,-5.3641,-5.3694,-5.372,-5.3784,-5.3818,-5.3866,-5.3855,-5.3794,-5.3984,-5.3898,-5.3985,-5.3985,-5.4026,-5.4024,-5.4288,-5.4052,-5.4052,-5.4051,-5.4051,0,-5.3396,-5.35,-5.3492,-5.3562,-5.3675,-5.3657,-5.3768,-5.3782,-5.3814,-5.3884,-5.3844,-5.391,-5.3892,-5.3957,-5.3948,-5.4053,-5.4069,-5.407,-5.4066,-5.4073,-5.4073,-5.4095,-5.4082,-5.4058,-5.4057,-5.4055,-5.4054,0,-5.36,-5.3599,-5.3719,-5.3751,-5.3761,-5.3843,-5.3869,-5.3934,-5.3937,-5.4025,-5.4045,-5.4049,-5.4123,-5.4117,-5.42,-5.4194,-5.4323,-5.4306,-5.431,-5.4305,-5.4392,-5.4383,-5.4678,-5.4715,-5.4457,-5.446,-5.4462,0,-5.3734,-5.3812,-5.3851,-5.3896,-5.392,-5.3992,-5.4034,-5.4018,-5.4064,-5.4114,-5.4172,-5.4242,-5.4297,-5.4417,-5.4426,-5.4488,-5.4471,-5.457,-5.448,-5.4483,-5.447,-5.4465,-5.4471,-5.4588,-5.4591,-5.4593,-5.4595,0,-5.397,-5.3965,-5.4029,-5.4092,-5.4143,-5.4192,-5.4236,-5.4274,-5.4262,-5.4314,-5.4389,-5.4432,-5.4516,-5.4585,-5.4643,-5.4662,-5.4626,-5.4623,-5.4646,-5.4653,-5.4651,-5.4651,-5.4356,-5.4616,-5.4614,-5.4613,-5.4611,-5.4611,-5.4141,-5.4207,-5.4245,-5.4316,-5.4347,-5.4388,-5.445,-5.446,-5.4523,-5.459,-5.4576,-5.466,-5.4695,-5.477,-5.4795,-5.4858,-5.4822,-5.4856,-5.4864,-5.4873,-5.4882,-5.4642,-5.4869,-5.4868,-5.4868,-5.4867,-5.4867,0,-5.4374,-5.4395,-5.4461,-5.4523,-5.4578,-5.454,-5.4586,-5.4634,-5.4708,-5.4745,-5.48,-5.4884,-5.495,-5.4964,-5.5027,-5.5075,-5.5059,-5.5091,-5.5087,-5.5091,-5.4912,-5.4884,-5.5102,-5.5102,-5.5102,-5.5102,-5.5102,-5.5102,-5.4502,-5.461,-5.4609,-5.4731,-5.4751,-5.4833,-5.4862,-5.4899,-5.4928,-5.5024,-5.5079,-5.5088,-5.5115,-5.5178,-5.5236,-5.5238,-5.5262,-5.53,-5.5296,-5.5128,-5.5104,-5.5082,-5.5056,-5.5306,-5.5306,-5.547,-5.5471,-5.5472]}]]